CW6928 Weather Reports


Display with metric or nautical units.
time (UTC)temp
F
wind
direction
speed
MPH
gust
MPH
rain 1hr
in
rain 24hr
in
rain mn
in
humidity
%
barometer
mb
20191020185320 68 212 0.0 0.0 0.00 0.00 0.00 36 1006.8
20191020184337 68 209 0.0 0.0 0.00 0.00 0.00 38 1007.0
20191020183327 67 212 0.0 0.0 0.00 0.00 0.00 39 1007.0
20191020182316 66 199 0.0 0.0 0.00 0.00 0.00 40 1007.1
20191020181329 66 196 0.0 0.0 0.00 0.00 0.00 39 1007.0
20191020180323 67 205 0.0 0.0 0.00 0.00 0.00 37 1007.0
20191020175335 68 205 0.0 0.0 0.00 0.00 0.00 39 1007.2
20191020174327 67 221 0.0 0.0 0.00 0.00 0.00 40 1007.2
20191020173325 67 147 0.0 0.0 0.00 0.00 0.00 40 1007.2
20191020172318 66 150 0.0 0.0 0.00 0.00 0.00 39 1007.3
20191020171331 66 189 0.0 0.0 0.00 0.00 0.00 40 1007.3
20191020170321 66 186 0.0 0.0 0.00 0.00 0.00 41 1007.3
20191020165321 64 212 0.0 0.0 0.00 0.00 0.00 43 1007.4
20191020164334 63 213 0.0 0.0 0.00 0.00 0.00 48 1007.3
20191020163324 61 214 0.0 0.0 0.00 0.00 0.00 52 1007.3
20191020162321 60 217 0.0 0.0 0.00 0.00 0.00 53 1007.2
20191020161331 59 217 0.0 0.0 0.00 0.00 0.00 56 1007.1
20191020160321 58 218 0.0 0.0 0.00 0.00 0.00 57 1007.1
20191020155333 56 219 0.0 0.0 0.00 0.00 0.00 60 1006.3
20191020154328 55 221 0.0 0.0 0.00 0.00 0.00 63 1006.4
20191020153320 54 223 0.0 0.0 0.00 0.00 0.00 62 1006.4
20191020152336 53 231 0.0 0.0 0.00 0.00 0.00 65 1006.6
20191020151326 51 231 0.0 0.0 0.00 0.00 0.00 67 1006.8
20191020150320 50 196 0.0 0.0 0.00 0.00 0.00 68 1006.8
20191020145333 49 196 0.0 0.0 0.00 0.00 0.00 72 1006.9
20191020144326 48 197 0.0 0.0 0.00 0.00 0.00 75 1007.0
20191020143319 46 197 0.0 0.0 0.00 0.00 0.00 80 1007.0
20191020142333 44 197 0.0 0.0 0.00 0.00 0.00 83 1006.7
20191020141322 43 197 0.0 0.0 0.00 0.00 0.00 87 1006.8
20191020140335 41 197 0.0 0.0 0.00 0.00 0.00 91 1006.8
20191020135329 39 197 0.0 0.0 0.00 0.00 0.00 93 1006.6
20191020134322 38 197 0.0 0.0 0.00 0.00 0.00 93 1006.5
20191020133332 37 197 0.0 0.0 0.00 0.00 0.00 93 1006.5
20191020132326 37 197 0.0 0.0 0.00 0.00 0.00 93 1006.2
20191020131339 36 197 0.0 0.0 0.00 0.00 0.00 93 1006.0
20191020130329 36 197 0.0 0.0 0.00 0.00 0.00 93 1006.0
20191020125322 36 197 0.0 0.0 0.00 0.00 0.00 93 1005.6
20191020124336 36 197 0.0 0.0 0.00 0.00 0.00 92 1005.6
20191020123329 36 197 0.0 0.0 0.00 0.00 0.00 92 1005.6
20191020122321 36 197 0.0 0.0 0.00 0.00 0.00 92 1005.5
20191020121321 37 197 0.0 0.0 0.00 0.00 0.00 92 1005.3
20191020120338 37 197 0.0 0.0 0.00 0.00 0.00 92 1005.3
20191020115328 37 197 0.0 0.0 0.00 0.00 0.00 92 1005.3
20191020114317 37 197 0.0 0.0 0.00 0.00 0.00 92 1005.2
20191020113334 37 197 0.0 0.0 0.00 0.00 0.00 92 1005.2
20191020112324 37 197 0.0 0.0 0.00 0.00 0.00 91 1005.2
20191020111334 37 197 0.0 0.0 0.00 0.00 0.00 92 1004.8
20191020110327 37 197 0.0 0.0 0.00 0.00 0.00 92 1004.8
20191020105323 37 197 0.0 0.0 0.00 0.00 0.00 91 1004.7
20191020104336 37 197 0.0 0.0 0.00 0.00 0.00 92 1004.5
20191020103326 37 197 0.0 0.0 0.00 0.00 0.00 91 1004.5
20191020102326 37 197 0.0 0.0 0.00 0.00 0.00 91 1004.1
20191020101316 37 197 0.0 0.0 0.00 0.00 0.00 90 1004.9
20191020100329 38 197 0.0 0.0 0.00 0.00 0.00 91 1004.9
20191020095322 38 197 0.0 0.0 0.00 0.00 0.00 91 1004.9
20191020094316 38 197 0.0 0.0 0.00 0.00 0.00 90 1004.7
20191020093329 38 197 0.0 0.0 0.00 0.00 0.00 90 1004.7
20191020092319 38 197 0.0 0.0 0.00 0.00 0.00 90 1004.5
20191020091336 38 197 0.0 0.0 0.00 0.00 0.00 89 1004.3
20191020090329 39 197 0.0 0.0 0.00 0.00 0.00 89 1004.3
20191020085339 39 197 0.0 0.0 0.00 0.00 0.00 89 1004.4
20191020084329 38 197 0.0 0.0 0.00 0.00 0.00 89 1004.4
20191020083323 38 197 0.0 0.0 0.00 0.00 0.00 89 1004.4
20191020082332 38 197 0.0 0.0 0.00 0.00 0.00 88 1004.1
20191020081325 39 197 0.0 0.0 0.00 0.00 0.00 88 1003.9
20191020080319 39 197 0.0 0.0 0.00 0.00 0.00 88 1003.9
20191020075332 39 197 0.0 0.0 0.00 0.00 0.00 87 1003.9
20191020074322 40 197 0.0 0.0 0.00 0.00 0.00 86 1003.8
20191020073335 40 197 0.0 0.0 0.00 0.00 0.00 84 1003.8
20191020072329 40 197 0.0 0.0 0.00 0.00 0.00 83 1003.8
20191020071319 41 197 0.0 0.0 0.00 0.00 0.00 82 1003.7
20191020070332 41 197 0.0 0.0 0.00 0.00 0.00 81 1003.7
20191020065322 42 197 0.0 0.0 0.00 0.00 0.00 80 1003.6
20191020064339 43 197 0.0 0.0 0.00 0.00 0.00 78 1003.6
20191020063329 43 197 0.0 0.0 0.00 0.00 0.00 76 1003.6
20191020062318 44 197 0.0 0.0 0.00 0.00 0.00 76 1003.7
20191020061335 43 197 0.0 0.0 0.00 0.00 0.00 76 1003.7
20191020060329 43 197 0.0 0.0 0.00 0.00 0.00 76 1003.7
20191020055321 44 197 0.0 0.0 0.00 0.00 0.00 75 1003.7
20191020054334 45 197 0.0 0.0 0.00 0.00 0.00 72 1003.7
20191020053328 45 197 0.0 0.0 0.00 0.00 0.00 70 1003.7
20191020052318 44 197 0.0 0.0 0.00 0.00 0.00 72 1003.7
20191020051331 44 197 0.0 0.0 0.00 0.00 0.00 74 1003.5
20191020050331 44 197 0.0 0.0 0.00 0.00 0.00 75 1003.5
20191020045321 44 197 0.0 0.0 0.00 0.00 0.00 76 1003.6
20191020044334 44 197 0.0 0.0 0.00 0.00 0.00 75 1003.5
20191020043324 44 197 0.0 0.0 0.00 0.00 0.00 76 1003.5
20191020042318 44 197 0.0 0.0 0.00 0.00 0.00 75 1003.5
20191020041331 44 197 0.0 0.0 0.00 0.00 0.00 75 1002.6
20191020040321 45 197 0.0 0.0 0.00 0.00 0.00 73 1002.6
20191020035331 46 197 0.0 0.0 0.00 0.00 0.00 71 1003.4
20191020034328 47 197 0.0 0.0 0.00 0.00 0.00 70 1003.4
20191020033320 47 197 0.0 0.0 0.00 0.00 0.00 67 1003.4
20191020032334 48 197 0.0 0.0 0.00 0.00 0.00 66 1003.4
20191020031331 48 197 0.0 0.0 0.00 0.00 0.00 64 1002.5
20191020030320 49 197 0.0 0.0 0.00 0.00 0.00 65 1002.5
20191020025330 50 197 0.0 0.0 0.00 0.00 0.00 61 1003.2
20191020024323 51 197 0.0 0.0 0.00 0.00 0.00 59 1003.3
20191020023320 51 197 0.0 0.0 0.00 0.00 0.00 58 1003.3
20191020022333 52 197 0.0 0.0 0.00 0.00 0.00 58 1003.0
20191020021326 52 197 0.0 0.0 0.00 0.00 0.00 57 1002.8
20191020020323 53 197 0.0 0.0 0.00 0.00 0.00 56 1002.8
20191020015333 53 197 0.0 0.0 0.00 0.00 0.00 54 1002.7
20191020014326 54 197 0.0 0.0 0.00 0.00 0.00 54 1002.6
20191020013336 54 197 0.0 0.0 0.00 0.00 0.00 54 1002.6
20191020012332 54 197 0.0 0.0 0.00 0.00 0.00 54 1002.3
20191020011322 54 197 0.0 0.0 0.00 0.00 0.00 54 1002.2
20191020010332 54 197 0.0 0.0 0.00 0.00 0.00 55 1002.2
20191020005330 54 197 0.0 0.0 0.00 0.00 0.00 55 1002.1
20191020004323 55 197 0.0 0.0 0.00 0.00 0.00 53 1002.0
20191020003335 56 197 0.0 0.0 0.00 0.00 0.00 53 1002.0
20191020002328 57 197 0.0 0.0 0.00 0.00 0.00 50 1001.6
20191020001322 57 197 0.0 0.0 0.00 0.00 0.00 48 1001.5
20191020000335 58 197 0.0 0.0 0.00 0.00 0.00 47 1001.5
20191019235328 59 197 0.0 0.0 0.00 0.00 0.00 46 1001.2
20191019234328 59 197 0.0 0.0 0.00 0.00 0.00 44 1001.1
20191019233318 60 197 0.0 0.0 0.00 0.00 0.00 44 1001.1
20191019232331 61 197 0.0 0.0 0.00 0.00 0.00 43 1000.9
20191019231321 61 197 0.0 0.0 0.00 0.00 0.00 41 1000.7
20191019230338 62 174 0.0 0.0 0.00 0.00 0.00 41 1000.7
20191019225328 63 174 0.0 0.0 0.00 0.00 0.00 40 1000.5
20191019224318 64 283 0.0 0.0 0.00 0.00 0.00 41 1000.4
20191019223331 64 283 0.0 0.0 0.00 0.00 0.00 40 1000.4
20191019222327 65 283 0.0 0.0 0.00 0.00 0.00 39 1000.2
20191019221337 65 281 0.0 0.0 0.00 0.00 0.00 37 1000.2
20191019220327 65 281 0.0 0.0 0.00 0.00 0.00 35 1000.2
20191019215324 66 303 0.0 0.0 0.00 0.00 0.00 39 1000.1
20191019214334 66 298 0.0 0.0 0.00 0.00 0.00 36 1000.1
20191019213327 66 310 0.0 0.0 0.00 0.00 0.00 36 1000.1
20191019212337 66 296 0.0 0.0 0.00 0.00 0.00 36 1000.1
20191019211331 67 296 0.0 0.0 0.00 0.00 0.00 36 1000.0
20191019210324 67 298 0.0 0.0 0.00 0.00 0.00 38 1000.0
20191019205334 67 146 0.0 0.0 0.00 0.00 0.00 37 1000.0
20191019204328 67 308 0.0 0.0 0.00 0.00 0.00 38 1000.1
20191019203321 67 294 0.0 0.0 0.00 0.00 0.00 38 1000.1
20191019202330 67 327 0.0 0.0 0.00 0.00 0.00 39 1000.0
20191019201327 67 163 0.0 0.0 0.00 0.00 0.00 39 999.9
20191019200320 67 316 0.0 0.0 0.00 0.00 0.00 41 999.9
20191019195333 67 313 0.0 0.0 0.00 0.00 0.00 41 1000.0
20191019194323 67 287 0.0 0.0 0.00 0.00 0.00 39 999.9
20191019193317 68 147 0.0 0.0 0.00 0.00 0.00 43 999.9
20191019192330 68 282 0.0 0.0 0.00 0.00 0.00 41 1000.0
20191019191320 69 162 0.0 0.0 0.00 0.00 0.00 50 1000.0
20191019190333 68 168 0.0 0.0 0.00 0.00 0.00 51 1000.0